Haines, AK

6:00 AM AKST on December 18, 2017 (GMT -0900)
Haines

Weather History for PAHN - January, 2013

Change the Weather History Date:

Sunday, January 13, 2013

  Actual Average Record
Temperature  
Mean Temperature 32 °F -  
Max Temperature 39 °F 26 °F 45 °F (2015)
Min Temperature 24 °F 19 °F -8 °F (1980)
Degree Days  
Heating Degree Days 34    
Moisture  
Dew Point 30 °F    
Average Humidity 92    
Maximum Humidity 100    
Minimum Humidity 86    
Precipitation  
Precipitation 0.01 in - - ()
Sea Level Pressure  
Sea Level Pressure 30.25 in    
Wind  
Wind Speed 10 mph (North)    
Max Wind Speed 16 mph    
Max Gust Speed 32 mph    
Visibility 9 miles    
Events Snow    
Averages and records for this station are not official NWS values.
T = Trace of Precipitation, MM = Missing Value Source: NWS Daily Summary

Daily Weather History Graph

Daily Weather History Graph

Search for Another Location

Airport or City:

Trip Planner

Search our weather history database for the weather conditions in past years. The results will help you decide how hot, cold, wet, or windy it might be!

Date:

Astronomy

Jan. 13, 2013 Rise Set
Actual Time 8:46 AM AKST 3:36 PM AKST
Civil Twilight 7:54 AM AKST 4:27 PM AKST
Nautical Twilight 7:01 AM AKST 5:20 PM AKST
Astronomical Twilight 6:12 AM AKST 6:09 PM AKST
Moon 9:02 AM AKST (1/13) 7:17 PM AKST (1/13)
Length of Visible Light 8h 33m
Length of Day
6h 50m
Waxing Crescent, 6% of the Moon is Illuminated
Jan 13
Waxing Crescent
Jan 18
First Quarter
Jan 26
Full
Feb 3
Last Quarter
Feb 9
New

Hourly Weather History & Observations

Time (AKST) Temp. Windchill Dew Point Humidity Pressure Visibility Wind Dir Wind Speed Gust Speed Precip Events Conditions
12:31 AM 24.8 °F 14.0 °F 23.0 °F 93% 30.32 in 3.0 mi WNW 11.5 mph - 0.01 in Snow Light Snow
12:54 AM 25.0 °F 14.2 °F 23.0 °F 92% 30.32 in 4.0 mi WNW 11.5 mph - 0.01 in Snow Light Snow
1:11 AM 24.8 °F 15.3 °F 23.0 °F 93% 30.32 in 2.0 mi WNW 9.2 mph - 0.00 in Snow Light Snow
1:19 AM 24.8 °F 14.6 °F 23.0 °F 93% 30.32 in 2.5 mi West 10.4 mph - 0.00 in Snow Light Snow
1:42 AM 24.8 °F 15.3 °F 24.8 °F 100% 30.32 in 3.0 mi West 9.2 mph - 0.00 in Snow Light Snow
1:54 AM 25.0 °F 14.8 °F 23.0 °F 92% 30.33 in 3.0 mi WNW 10.4 mph - 0.00 in Snow Light Snow
2:06 AM 24.8 °F 16.1 °F 24.8 °F 100% 30.32 in 6.0 mi WNW 8.1 mph - 0.00 in   Overcast
2:54 AM 27.0 °F 16.7 °F 24.1 °F 89% 30.33 in 5.0 mi WNW 11.5 mph - 0.00 in   Overcast
3:11 AM 26.6 °F 17.5 °F 24.8 °F 93% 30.32 in 4.0 mi WNW 9.2 mph - 0.00 in   Overcast
3:54 AM 27.0 °F 17.3 °F 25.0 °F 92% 30.32 in 10.0 mi WNW 10.4 mph - 0.00 in   Overcast
4:54 AM 27.0 °F 16.1 °F 24.1 °F 89% 30.32 in 10.0 mi WNW 12.7 mph - N/A   Overcast
5:54 AM 26.1 °F 18.4 °F 24.1 °F 92% 30.31 in 10.0 mi WNW 6.9 mph - N/A   Overcast
6:08 AM 26.6 °F 18.2 °F 24.8 °F 93% 30.30 in 10.0 mi WNW 8.1 mph - N/A   Overcast
6:47 AM 26.6 °F 16.8 °F 24.8 °F 93% 30.30 in 10.0 mi WNW 10.4 mph - N/A   Overcast
6:54 AM 27.0 °F 16.7 °F 25.0 °F 92% 30.30 in 10.0 mi WNW 11.5 mph - N/A   Overcast
7:54 AM 26.1 °F 16.8 °F 24.1 °F 92% 30.30 in 10.0 mi WNW 9.2 mph - N/A   Overcast
8:50 AM 28.4 °F 18.5 °F 26.6 °F 93% 30.29 in 10.0 mi WNW 11.5 mph - N/A   Overcast
8:54 AM 28.0 °F 18.1 °F 25.0 °F 88% 30.30 in 10.0 mi WNW 11.5 mph - N/A   Overcast
9:28 AM 26.6 °F 16.8 °F 24.8 °F 93% 30.30 in 10.0 mi WNW 10.4 mph - N/A   Overcast
9:54 AM 28.0 °F 18.6 °F 26.1 °F 92% 30.31 in 10.0 mi WNW 10.4 mph - N/A   Overcast
10:54 AM 27.0 °F 21.6 °F 26.1 °F 96% 30.28 in 10.0 mi WNW 4.6 mph - N/A   Overcast
11:17 AM 28.4 °F 20.4 °F 26.6 °F 93% 30.28 in 10.0 mi WNW 8.1 mph - 0.00 in   Overcast
11:54 AM 28.0 °F 19.3 °F 26.1 °F 92% 30.29 in 10.0 mi WNW 9.2 mph - 0.00 in   Overcast
12:19 PM 28.4 °F 19.1 °F 26.6 °F 93% 30.28 in 10.0 mi WNW 10.4 mph - 0.00 in   Overcast
12:54 PM 28.0 °F 21.7 °F 27.0 °F 96% 30.28 in 10.0 mi Variable 5.8 mph - 0.00 in   Overcast
1:24 PM 35.6 °F 28.6 °F 33.8 °F 93% 30.26 in 10.0 mi East 9.2 mph 20.7 mph 0.00 in   Overcast
1:54 PM 37.0 °F 29.3 °F 34.0 °F 89% 30.26 in 10.0 mi ENE 11.5 mph 24.2 mph 0.00 in   Overcast
2:30 PM 37.4 °F 30.8 °F 33.8 °F 87% 30.24 in 10.0 mi ENE 9.2 mph 17.3 mph N/A   Overcast
2:38 PM 37.4 °F 28.9 °F 35.6 °F 93% 30.24 in 10.0 mi East 13.8 mph 19.6 mph N/A   Overcast
2:54 PM 37.0 °F 30.4 °F 35.1 °F 93% 30.24 in 10.0 mi East 9.2 mph 24.2 mph N/A   Overcast
3:54 PM 37.0 °F 31.0 °F 35.1 °F 93% 30.22 in 10.0 mi ESE 8.1 mph 23.0 mph N/A   Overcast
4:44 PM 37.4 °F 30.8 °F 33.8 °F 87% 30.21 in 10.0 mi East 9.2 mph 16.1 mph N/A   Overcast
4:54 PM 37.0 °F 27.7 °F 35.1 °F 93% 30.22 in 10.0 mi ENE 16.1 mph 25.3 mph N/A   Overcast
5:30 PM 37.4 °F 29.3 °F 33.8 °F 87% 30.21 in 10.0 mi East 12.7 mph 19.6 mph N/A   Overcast
5:44 PM 37.4 °F 29.3 °F 35.6 °F 93% 30.20 in 10.0 mi East 12.7 mph 21.9 mph N/A   Overcast
5:51 PM 37.4 °F 30.8 °F 35.6 °F 93% 30.20 in 10.0 mi East 9.2 mph 18.4 mph N/A   Overcast
5:54 PM 37.0 °F 31.0 °F 35.1 °F 93% 30.20 in 10.0 mi ESE 8.1 mph 18.4 mph N/A   Overcast
6:24 PM 37.4 °F 29.8 °F 35.6 °F 93% 30.19 in 10.0 mi East 11.5 mph 18.4 mph N/A   Overcast
6:54 PM 37.0 °F 28.9 °F 35.1 °F 93% 30.19 in 10.0 mi East 12.7 mph 21.9 mph N/A   Overcast
7:26 PM 37.4 °F 28.9 °F 35.6 °F 93% 30.18 in 10.0 mi ENE 13.8 mph 26.5 mph N/A   Overcast
7:54 PM 37.9 °F 30.5 °F 35.1 °F 89% 30.18 in 10.0 mi ENE 11.5 mph 21.9 mph N/A   Overcast
8:27 PM 37.4 °F 28.9 °F 35.6 °F 93% 30.17 in 10.0 mi ENE 13.8 mph 26.5 mph N/A   Overcast
8:54 PM 37.9 °F 30.5 °F 35.1 °F 89% 30.17 in 10.0 mi ENE 11.5 mph 21.9 mph N/A   Overcast
9:54 PM 37.9 °F 30.9 °F 35.1 °F 89% 30.16 in 10.0 mi ENE 10.4 mph 25.3 mph N/A   Overcast
10:23 PM 37.4 °F 30.8 °F 35.6 °F 93% 30.16 in 10.0 mi East 9.2 mph 24.2 mph N/A   Overcast
10:31 PM 37.4 °F 29.8 °F 35.6 °F 93% 30.16 in 10.0 mi ENE 11.5 mph 20.7 mph N/A   Overcast
10:54 PM 39.0 °F 32.3 °F 35.1 °F 86% 30.16 in 10.0 mi NE 10.4 mph 32.2 mph N/A   Overcast
11:04 PM 39.2 °F 32.0 °F 35.6 °F 87% 30.15 in 10.0 mi East 11.5 mph 23.0 mph N/A   Overcast
11:15 PM 39.2 °F 32.0 °F 35.6 °F 87% 30.15 in 10.0 mi East 11.5 mph 20.7 mph N/A   Overcast
11:41 PM 39.2 °F 33.0 °F 35.6 °F 87% 30.15 in 10.0 mi ENE 9.2 mph 24.2 mph N/A   Overcast
11:54 PM 39.0 °F 31.4 °F 36.0 °F 89% 30.15 in 10.0 mi ESE 12.7 mph 19.6 mph N/A   Overcast